Terminal Aerodrome Forecast
Issued by NWS Wakefield, VA

Home | Current Version | Previous Version | Text Only | Print | Product List | Glossary On
Versions: 1 2 3 4 5 6 7 8 9 10 11 12 13 14 15 16
000
FTUS41 KAKQ 211900 AAA
TAFSBY
TAF AMD
KSBY 211929Z 2119/2218 11005KT P6SM VCSH BKN050 OVC200
      TEMPO 2119/2122 BKN025
     FM212200 12004KT P6SM BKN050
     FM220300 12005KT 5SM HZ BKN200
     FM221500 32005KT P6SM SCT050 BKN200=

USA.gov is the U.S. government's official web portal to all federal, state and local government web resources and services.